LEMD Weather Reports


time (UTC)temp
C
wind
direction
speed
KPH
gust
KPH
rain 1hr
cm
rain 24hr
cm
rain mn
cm
humidity
%
barometer
mb
20260503054503 12 340 8.0 0.0 0.00 0.00 0.00 100 1014.0
20260503053004 11 360 1.6 0.0 0.00 0.00 0.00 100 1014.0
20260503044504 12 360 1.6 0.0 0.00 0.00 0.00 100 1014.0
20260503043004 12 0 3.2 0.0 0.00 0.00 5.08 100 1014.0
20260503041503 12 0 3.2 0.0 0.00 0.00 5.08 100 1014.0
20260503040005 12 330 1.6 0.0 0.00 0.00 0.00 100 1014.0
20260503033004 12 350 1.6 0.0 0.00 0.00 0.00 100 1014.0
20260503024504 12 0 1.6 0.0 0.00 0.00 0.00 100 1015.0
20260503021504 12 80 1.6 0.0 0.00 0.00 0.00 100 1015.0
20260503020005 12 0 3.2 0.0 0.00 0.00 0.00 100 1015.0
20260503014504 12 0 3.2 0.0 0.00 0.00 0.00 100 1015.0
20260503010004 12 0 3.2 0.0 0.00 0.00 0.00 100 1015.0
20260503004504 12 0 3.2 0.0 0.00 0.00 0.00 100 1015.0
20260503003004 12 0 1.6 0.0 0.00 0.00 0.00 100 1016.0
20260502234504 13 70 1.6 0.0 0.00 0.00 0.00 100 1015.0
20260502231504 12 0 3.2 0.0 0.00 0.00 0.00 100 1015.0
20260502230005 15 160 4.8 0.0 0.00 0.00 0.00 87 1016.0
20260502224504 15 160 4.8 0.0 0.00 0.00 0.00 87 1016.0
20260502223004 13 0 3.2 0.0 0.00 0.00 0.00 82 1016.0
20260502221504 13 0 3.2 0.0 0.00 0.00 0.00 82 1016.0
20260502220006 13 0 1.6 0.0 0.00 0.00 0.00 82 1016.0
20260502214504 13 0 1.6 0.0 0.00 0.00 0.00 82 1016.0
20260502210004 17 210 9.7 0.0 0.00 0.00 0.00 67 1015.0
20260502204505 17 210 9.7 0.0 0.00 0.00 0.00 67 1015.0
20260502203005 17 240 9.7 0.0 0.00 0.00 0.00 67 1015.0
20260502201503 17 240 9.7 0.0 0.00 0.00 0.00 67 1015.0
20260502194503 17 240 11.3 0.0 0.00 0.00 0.00 67 1015.0
20260502191504 17 250 9.7 0.0 0.00 0.00 0.00 63 1015.0
20260502181503 17 260 1.6 0.0 0.00 0.00 0.00 67 1015.0
20260502161504 20 210 22.5 0.0 0.00 0.00 0.00 60 1015.0
20260502151505 20 190 9.7 0.0 0.00 0.00 0.00 72 1016.0
20260502123004 17 170 11.3 0.0 0.00 0.00 0.00 77 1018.0
20260502121504 17 170 11.3 0.0 0.00 0.00 0.00 77 1018.0
20260502113004 16 0 3.2 0.0 0.00 0.00 0.00 100 1019.0
20260502110005 16 160 3.2 0.0 0.00 0.00 0.00 100 1019.0
20260502104504 16 160 3.2 0.0 0.00 0.00 0.00 100 1019.0
20260502103004 15 180 1.6 0.0 0.00 0.00 0.00 100 1019.0
20260502101504 15 180 1.6 0.0 0.00 0.00 0.00 100 1019.0